Location: Unspecified
(36.0190°N, 0.0000°E)
Time: 09:40:20
(UTC+00:00)

Vanguard 2 - Visible Passes

Search period start: 04 April 2026 00:00
Search period end: 14 April 2026 00:00
Orbit: 554 x 2896 km, 32.9° (Epoch: 29 March)

Date Brightness Start Highest point End Pass type
(mag) Time Alt. Az. Time Alt. Az. Time Alt. Az.
4 Apr 10.1 20:01:31 10° W 20:12:14 55° SSW 20:21:32 27° SE visible
4 Apr 10.9 22:11:42 10° W 22:22:27 29° SW 22:22:27 29° SW visible
5 Apr 10.2 20:13:31 10° W 20:24:04 48° SSW 20:32:33 27° SSE visible
5 Apr 11.1 22:24:36 10° W 22:33:29 23° SW 22:33:29 23° SW visible
6 Apr 10.4 20:25:37 10° W 20:35:52 41° SSW 20:43:38 26° SSE visible
6 Apr 11.3 22:38:10 10° WSW 22:44:34 17° SW 22:44:34 17° SW visible
7 Apr 9.7 18:29:08 10° W 18:37:31 59° SSW 18:51:13 10° ESE visible
7 Apr 10.6 20:37:51 10° W 20:47:41 34° SSW 20:54:45 23° S visible
7 Apr 11.5 22:53:30 10° WSW 22:55:41 11° SW 22:55:41 11° SW visible
8 Apr 9.8 18:41:04 10° W 18:49:22 52° SSW 19:02:43 10° SE visible
8 Apr 10.8 20:50:20 10° W 20:59:29 27° SSW 21:05:56 20° S visible
9 Apr 10.0 18:53:03 10° W 19:01:12 44° SSW 19:14:02 10° SE visible
9 Apr 11.1 21:03:13 10° WSW 21:11:18 21° SSW 21:17:09 16° S visible
10 Apr 10.3 19:05:08 10° W 19:13:03 36° SSW 19:25:06 10° SE visible
10 Apr 11.3 21:16:52 10° WSW 21:23:09 15° SSW 21:28:25 12° S visible
11 Apr 10.5 19:17:23 10° W 19:24:55 30° SSW 19:35:52 10° SSE visible
11 Apr 11.5 21:33:49 10° SW 21:35:02 10° SW 21:36:17 10° SSW visible
12 Apr 10.7 19:29:54 10° WSW 19:36:47 23° SSW 19:46:14 10° SSE visible
13 Apr 11.0 19:42:55 10° WSW 19:48:40 17° SSW 19:56:00 10° S visible
